Lapse_Rate
6.1 5.8 6.0 5.8 5.5 5.5 5.6 6.2 6.6 5.9 6.2 6.7 6.5 6.5 6.1 5.1 4.7 4.9 6.2 7.5 8.4 7.8 7.2 7.7 7.6 7.4 7.4 7.7 5.9 6.3 7.5 7.8 7.3
6.0 5.3 5.7 5.3 5.4 5.5 5.4 5.3 5.5 5.6 5.9 6.3 6.1 6.2 5.1 4.6 4.5 4.7 5.4 7.4 7.0 7.2 7.0 6.7 6.8 6.6 6.5 6.3 6.2 7.5 7.7 6.8 7.1
5.8 5.1 5.1 5.3 5.4 5.5 5.2 4.9 4.8 5.1 5.7 5.9 6.3 5.9 5.0 4.6 4.3 4.2 6.2 6.7 7.1 6.5 6.2 6.6 5.9 6.2 5.9 5.9 6.3 6.7 6.2 6.5 6.8
5.2 5.2 5.1 5.5 5.5 5.3 5.0 4.4 4.4 4.7 5.2 5.6 6.7 6.1 5.4 4.6 4.4 4.3 5.2 5.6 5.9 5.8 5.6 5.5 5.6 5.8 5.9 5.8 5.9 6.0 6.2 7.2 6.6
5.0 4.8 5.4 5.7 5.4 5.3 5.0 4.4 4.2 4.4 4.9 6.6 6.7 5.8 5.1 4.4 4.5 4.5 4.9 5.3 5.5 5.5 5.3 5.4 5.4 5.4 5.3 5.4 5.5 5.6 5.7 6.2 6.2
5.0 4.7 5.0 5.4 5.2 4.9 4.6 4.2 3.8 4.1 5.4 5.8 5.9 5.3 4.2 4.2 4.3 4.5 5.1 5.3 5.4 5.1 5.0 5.1 5.0 5.0 5.0 5.0 5.1 5.2 5.4 5.6 5.9
5.2 4.6 4.6 5.1 5.0 4.8 4.4 3.6 3.3 3.9 4.4 5.5 6.0 5.1 4.7 4.2 3.9 4.3 5.0 5.1 5.0 4.9 4.7 4.7 4.7 4.7 4.7 4.8 4.9 5.1 5.2 5.3 5.4
4.8 4.6 4.4 4.5 4.6 4.3 3.8 2.8 3.1 3.5 4.4 5.0 5.3 5.2 4.4 3.8 3.9 4.3 4.7 5.1 4.9 4.6 4.5 4.5 4.5 4.6 4.6 4.7 4.8 4.9 4.9 5.1 5.1
5.2 5.4 4.3 4.0 3.4 2.7 2.2 2.0 3.2 4.3 5.0 5.1 5.2 5.1 3.9 3.5 3.6 4.0 4.5 4.8 4.8 4.7 4.6 4.5 4.6 4.7 4.7 4.6 4.7 4.7 4.8 4.9 5.0
5.3 5.6 4.5 3.7 3.1 2.6 1.5 1.8 2.7 4.1 5.0 5.5 5.9 4.6 3.7 3.3 3.2 3.7 4.2 4.5 4.6 4.6 4.6 4.6 4.6 4.6 4.6 4.5 4.4 4.4 4.5 4.6 4.7
5.4 4.9 4.3 4.1 3.7 3.1 2.6 2.1 2.7 3.9 4.9 5.0 6.3 4.8 4.0 3.6 3.2 3.5 4.0 4.1 4.3 4.5 4.7 4.8 4.7 4.7 4.6 4.5 4.3 4.2 4.3 4.3 4.4
5.5 4.6 4.5 4.5 4.5 3.9 3.4 3.8 4.5 4.2 5.3 4.8 5.6 5.6 4.8 3.8 3.4 3.3 3.6 3.9 4.1 4.4 4.8 4.8 4.8 4.8 4.8 4.9 4.9 4.7 4.5 4.5 4.5
5.9 5.1 4.9 5.2 5.2 4.9 4.1 3.6 4.1 4.2 4.4 4.3 4.3 4.9 5.4 4.3 3.7 3.4 3.4 3.6 3.7 4.0 4.5 4.9 5.0 5.1 5.3 5.6 5.5 5.2 5.0 4.7 4.8
6.3 5.6 5.4 5.5 5.6 4.8 4.6 4.1 4.1 4.1 4.1 4.6 4.2 4.2 4.3 5.0 4.8 3.8 3.8 4.0 4.0 4.1 4.5 4.6 5.0 5.2 5.2 5.7 6.3 6.1 5.5 5.4 5.3
6.6 6.3 5.3 6.5 5.6 4.2 4.3 4.6 4.2 4.3 4.4 6.1 5.0 4.4 4.3 5.0 4.8 5.0 5.0 4.5 4.5 4.6 4.6 4.6 4.5 4.8 5.1 5.8 6.3 6.9 6.9 6.3 6.0
6.0 6.2 5.5 6.5 6.3 5.2 5.4 4.2 4.6 4.5 4.1 4.2 4.2 4.4 4.6 4.5 4.0 5.0 5.3 5.5 5.5 5.0 5.1 4.8 4.7 5.2 5.7 5.6 6.1 6.7 6.7 6.7 6.4
6.4 6.4 6.2 6.4 5.4 4.8 4.8 4.5 3.9 3.9 3.6 4.2 3.6 4.6 4.8 4.2 4.4 4.0 4.6 5.0 5.7 5.3 5.8 5.4 4.7 4.9 5.3 5.8 6.4 6.6 6.3 6.4 6.6
6.5 6.6 5.7 5.9 6.2 5.4 4.8 4.3 4.3 3.8 3.6 3.9 3.7 4.0 4.1 3.9 3.8 4.1 4.3 4.6 4.0 4.3 4.9 5.3 5.3 5.7 5.7 6.0 6.0 5.9 5.7 5.3 5.8
5.5 6.5 5.8 6.4 5.8 5.5 4.3 4.2 3.6 3.8 3.7 3.3 3.7 2.8 2.7 3.8 5.0 4.5 4.6 3.8 4.1 3.2 3.2 3.6 4.4 5.1 4.8 3.7 3.8 4.1 4.6 5.0 5.4
5.5 5.9 5.7 6.0 5.7 5.5 4.5 3.7 3.9 3.7 3.0 2.8 2.8 3.3 2.9 2.9 3.0 4.4 4.1 3.4 2.8 2.2 1.6 1.4 1.8 3.1 3.5 3.0 2.7 3.1 3.7 4.3 5.0
Wind_Speed
21 19 20 22 23 23 23 20 19 17 12 13 16 20 23 23 22 18 18 16 19 19 19 19 19 18 19 17 18 19 17 18 18
21 20 23 23 23 23 22 20 18 13 10 11 13 15 20 22 21 18 17 16 18 18 19 18 17 18 16 17 16 16 17 16 17
20 25 25 23 24 22 22 19 17 14 12 11 11 18 22 20 18 16 15 18 17 17 17 17 16 15 15 15 15 15 15 16 15
25 25 25 24 23 21 20 19 17 15 13 11 13 25 26 20 15 14 15 17 16 16 15 15 14 14 14 14 14 14 14 14 14
27 26 24 24 23 20 18 17 16 15 12 12 14 18 25 20 17 13 15 16 15 15 14 13 13 13 13 12 12 12 12 12 12
25 24 25 23 23 21 18 17 15 15 14 11 12 18 17 18 16 13 15 15 14 14 13 12 11 11 11 11 10 10 10 10 10
19 26 27 24 23 21 19 17 14 15 12 10 8 13 18 17 16 13 13 13 13 12 12 11 10 10 9 9 8 8 8 9 9
17 19 20 20 22 16 16 15 14 14 11 8 6 13 15 16 16 13 12 12 12 12 10 9 9 8 8 7 7 7 7 7 7
15 15 17 17 15 15 15 15 14 14 12 8 4 15 15 16 16 13 11 11 11 10 9 8 7 7 6 5 5 5 5 5 5
15 16 16 15 17 15 14 13 11 12 12 8 11 14 16 18 16 14 12 11 10 10 9 8 7 6 6 5 4 4 3 3 3
13 13 13 14 17 16 15 12 9 9 9 7 12 15 15 17 18 16 13 12 11 10 9 8 7 7 6 6 5 5 4 4 4
17 11 8 14 17 17 15 12 13 6 7 6 9 13 15 15 16 17 16 14 12 11 10 10 9 8 7 6 5 5 5 6 6
19 11 9 16 17 16 9 5 5 5 5 4 4 6 12 16 17 17 17 16 14 14 13 12 11 10 8 7 8 8 8 9 8
19 11 14 17 13 8 7 3 5 4 4 5 4 3 4 8 11 13 16 17 16 16 16 14 13 13 13 12 10 11 13 12 12
19 14 14 17 8 6 5 6 3 4 5 4 4 4 3 6 6 8 12 15 16 17 16 17 17 17 16 15 15 15 15 14 14
17 11 11 14 11 10 9 4 6 2 4 4 2 1 2 3 3 5 5 7 13 16 14 14 17 17 20 21 18 18 17 13 11
16 15 12 13 9 10 8 6 3 3 5 4 3 2 2 2 4 3 4 4 4 8 10 11 13 15 16 18 22 22 15 12 12
20 15 11 11 11 10 10 7 7 4 1 5 4 3 3 2 1 4 3 4 2 1 3 2 2 2 2 8 11 14 10 4 6
20 17 12 12 10 10 7 6 5 6 5 2 1 2 4 3 1 1 1 3 3 3 3 5 7 5 2 8 9 8 4 2 4
14 15 9 13 10 10 10 7 7 4 4 3 3 1 3 2 3 2 2 2 0 2 2 3 4 8 8 8 7 6 5 4 5
Wind_Direction
145 145 131 128 125 122 118 114 107 114 127 112 97 94 109 99 100 94 89 94 101 99 96 94 90 91 87 88 84 80 77 72 68
147 139 129 131 129 124 119 120 129 138 131 107 84 88 107 106 106 106 105 105 103 102 100 99 94 95 92 85 86 83 75 72 72
146 137 135 137 131 130 134 136 140 142 132 107 89 99 112 109 113 114 109 108 109 105 103 101 98 98 92 92 89 82 81 76 71
144 141 140 141 135 137 139 140 142 143 134 120 95 121 120 114 113 110 114 116 112 110 108 106 105 98 94 90 87 84 82 77 76
147 142 143 143 136 140 138 140 143 142 139 120 98 123 118 117 115 115 115 118 117 114 111 107 104 100 97 95 92 90 88 81 80
146 145 142 139 137 144 142 144 144 148 143 132 101 114 120 118 120 118 123 122 122 121 117 114 110 108 104 103 100 95 88 85 81
149 144 141 139 138 142 144 146 150 151 149 138 100 110 124 121 123 127 128 130 128 124 122 120 117 114 112 107 102 95 91 88 84
144 143 138 138 136 140 142 146 154 157 158 152 119 130 123 128 129 132 137 137 134 133 130 128 124 122 116 111 104 98 93 89 85
153 156 148 143 145 144 152 159 163 169 174 163 157 147 130 136 139 141 142 143 142 139 138 138 134 129 123 117 107 98 98 95 88
155 161 157 153 150 153 164 168 171 187 189 182 158 144 141 143 148 148 150 148 151 152 154 157 153 152 146 143 140 138 131 130 129
157 162 160 158 159 162 170 173 184 200 183 172 147 142 146 147 153 157 161 163 165 169 171 174 176 176 177 180 182 179 186 194 200
159 161 163 163 164 165 172 186 180 155 167 146 137 140 150 149 159 166 170 176 179 185 190 192 195 199 202 206 218 217 219 230 234
166 162 167 167 168 170 175 175 148 152 151 147 154 157 150 164 169 173 177 186 191 197 203 205 209 212 217 228 226 230 231 234 240
170 162 167 170 170 169 171 157 140 150 152 156 153 158 163 176 167 178 183 194 200 205 211 216 219 217 220 231 236 239 232 232 236
166 163 164 168 166 161 152 152 147 151 152 141 134 147 164 164 166 181 189 201 207 211 213 220 224 227 227 232 240 247 246 238 244
164 166 160 164 167 167 161 135 146 120 135 113 64 28 216 196 193 191 200 197 204 207 210 216 222 231 236 237 240 247 254 263 266
164 162 163 161 153 152 158 135 128 129 170 134 110 153 328 279 231 207 209 214 200 216 229 230 230 236 248 251 243 246 258 278 285
167 161 155 156 160 164 166 149 144 142 178 140 145 129 193 147 314 230 214 192 167 110 62 29 20 359 262 239 245 247 254 291 306
171 165 156 163 159 165 162 152 147 139 156 111 140 124 147 148 126 328 216 152 118 64 35 6 356 327 30 53 60 72 72 30 342
173 168 157 167 160 166 156 155 154 149 152 143 154 119 70 102 134 172 236 13 6 66 29 360 23 63 94 102 105 87 72 57 13